Location: Unspecified
(43.4680°N, 87.1740°E)
Time: 20:02:45
(UTC+00:00)

Cosmos 1656 Rocket - Pass Details

Date: 17 April 2021
Orbit: 795 x 847 km, 71.1° (Epoch: 11 May)

Event Time Altitude Azimuth Distance (km) Brightness Sun altitude
Rises 22:27:46 0° 190° (S) 3,281 6.4 -10.4°
Reaches altitude 10° 22:30:11 10° 186° (S) 2,356 5.7 -10.0°
Maximum altitude 22:35:25 56° 109° (ESE) 949 4.3 -9.1°
Drops below altitude 10° 22:40:43 10° 33° (NNE) 2,386 7.0 -8.3°
Sets 22:43:11 0° 29° (NNE) 3,327 7.7 -7.9°
